When you browse on this site, cookies collect data to enhance your experience and personalize the content and advertising you see.
Visit our Privacy Policy to learn more. By continuing to use the site, you agree to this use of cookies and data.
  • In Slovakia
  • List of Countries
  • For 7 days
  • Water Temperature
  • Satellite Maps
  • Weather Map
  • Weather Widgets
  • user-avatar
    Login

    Hourly Weather San Juan

    Today, 19 February, Tuesday

    Time Temperature Precipitation Wind Pressure Humidity
    00:00 +31°C° 0 mm 2 mps 705 mmHg 39%
    01:00 +30°C° 0 mm 1 mps 705 mmHg 41%
    02:00 +30°C° 0 mm 2 mps 705 mmHg 42%
    03:00 +29°C° 0 mm 2 mps 704 mmHg 42%
    04:00 +29°C° 0 mm 2 mps 704 mmHg 43%
    05:00 +30°C° 0 mm 2 mps 705 mmHg 41%
    06:00 +30°C° 0 mm 2 mps 705 mmHg 39%
    07:00 +31°C° 0 mm 2 mps 705 mmHg 37%
    08:00 +32°C° 0 mm 2 mps 705 mmHg 35%
    09:00 +34°C° 0 mm 2 mps 705 mmHg 34%
    10:00 +35°C° 0 mm 2 mps 705 mmHg 32%
    11:00 +36°C° 0 mm 2 mps 704 mmHg 30%
    12:00 +37°C° 0 mm 2 mps 704 mmHg 28%
    13:00 +38°C° 0 mm 2 mps 703 mmHg 25%
    14:00 +38°C° 0 mm 2 mps 703 mmHg 24%
    15:00 +38°C° 0 mm 2 mps 702 mmHg 23%
    16:00 +39°C° 0 mm 2 mps 701 mmHg 21%
    17:00 +38°C° 0 mm 2 mps 702 mmHg 22%
    18:00 +36°C° 0 mm 1 mps 702 mmHg 23%
    19:00 +35°C° 0 mm 1 mps 702 mmHg 24%
    20:00 +35°C° 0 mm 2 mps 703 mmHg 24%
    21:00 +35°C° 0 mm 2 mps 703 mmHg 25%
    22:00 +34°C° 0 mm 3 mps 704 mmHg 25%
    23:00 +33°C° 0 mm 3 mps 704 mmHg 27%

    Tomorrow, 20 February, Wednesday

    Time Temperature Precipitation Wind Pressure Humidity
    00:00 +33°C° 0 mm 3 mps 704 mmHg 29%
    01:00 +32°C° 0 mm 4 mps 704 mmHg 30%
    02:00 +31°C° 0 mm 3 mps 703 mmHg 31%
    03:00 +30°C° 0 mm 3 mps 703 mmHg 32%
    04:00 +30°C° 0 mm 3 mps 703 mmHg 33%
    05:00 +31°C° 0 mm 3 mps 703 mmHg 32%
    06:00 +33°C° 0 mm 3 mps 703 mmHg 30%
    07:00 +34°C° 0 mm 3 mps 704 mmHg 28%
    08:00 +35°C° 0 mm 3 mps 704 mmHg 26%
    09:00 +36°C° 0 mm 3 mps 703 mmHg 24%
    10:00 +37°C° 0 mm 3 mps 703 mmHg 23%
    11:00 +38°C° 0 mm 3 mps 703 mmHg 21%
    12:00 +39°C° 0 mm 3 mps 702 mmHg 19%
    13:00 +40°C° 0 mm 3 mps 701 mmHg 18%
    14:00 +40°C° 0 mm 3 mps 701 mmHg 17%
    15:00 +40°C° 0 mm 3 mps 700 mmHg 16%
    16:00 +42°C° 0 mm 3 mps 700 mmHg 15%
    17:00 +39°C° 0 mm 3 mps 700 mmHg 16%
    18:00 +38°C° 0 mm 3 mps 700 mmHg 17%
    19:00 +37°C° 0 mm 2 mps 701 mmHg 18%
    20:00 +36°C° 0 mm 3 mps 701 mmHg 20%
    21:00 +36°C° 0 mm 3 mps 702 mmHg 21%
    22:00 +35°C° 0 mm 3 mps 702 mmHg 22%
    23:00 +34°C° 0 mm 3 mps 702 mmHg 28%

    Day after tomorrow, 21 February, Thursday

    Time Temperature Precipitation Wind Pressure Humidity
    00:00 +33°C° 0 mm 3 mps 702 mmHg 34%
    01:00 +31°C° 0 mm 3 mps 702 mmHg 40%
    02:00 +30°C° 0 mm 2 mps 702 mmHg 41%
    03:00 +30°C° 0 mm 1 mps 702 mmHg 42%
    04:00 +27°C° 0 mm 0 mps 702 mmHg 43%
    05:00 +29°C° 0 mm 2 mps 702 mmHg 44%
    06:00 +29°C° 0 mm 4 mps 703 mmHg 45%
    07:00 +29°C° 0 mm 5 mps 703 mmHg 46%
    08:00 +32°C° 0 mm 5 mps 704 mmHg 42%
    09:00 +33°C° 0 mm 5 mps 704 mmHg 39%
    10:00 +35°C° 0 mm 5 mps 704 mmHg 36%
    11:00 +36°C° 0 mm 5 mps 704 mmHg 33%
    12:00 +37°C° 0 mm 5 mps 703 mmHg 30%
    13:00 +38°C° 0 mm 4 mps 703 mmHg 27%
    14:00 +38°C° 0 mm 4 mps 703 mmHg 25%
    15:00 +38°C° 0 mm 4 mps 702 mmHg 24%
    16:00 +38°C° 0 mm 4 mps 702 mmHg 23%
    17:00 +37°C° 0 mm 4 mps 702 mmHg 26%
    18:00 +36°C° 0 mm 4 mps 703 mmHg 29%
    19:00 +35°C° 0 mm 4 mps 703 mmHg 32%
    20:00 +34°C° 0 mm 3 mps 704 mmHg 34%
    21:00 +34°C° 0 mm 3 mps 704 mmHg 35%
    22:00 +32°C° 0 mm 2 mps 704 mmHg 37%
    23:00 +33°C° 0 mm 3 mps 704 mmHg 38%

    22 February, Friday

    Time Temperature Precipitation Wind Pressure Humidity
    00:00 +31°C° 0 mm 3 mps 704 mmHg 39%
    01:00 +32°C° 0 mm 4 mps 704 mmHg 40%
    02:00 +30°C° 0 mm 4 mps 704 mmHg 47%
    03:00 +29°C° 0 mm 5 mps 704 mmHg 54%
    04:00 +28°C° 0 mm 6 mps 704 mmHg 61%
    05:00 +27°C° 0 mm 6 mps 704 mmHg 59%
    06:00 +27°C° 0 mm 6 mps 705 mmHg 57%
    07:00 +27°C° 0 mm 6 mps 705 mmHg 55%
    08:00 +29°C° 0 mm 6 mps 705 mmHg 51%
    09:00 +30°C° 0 mm 6 mps 705 mmHg 48%
    10:00 +32°C° 0 mm 6 mps 705 mmHg 44%
    11:00 +33°C° 0 mm 6 mps 705 mmHg 42%
    12:00 +34°C° 0 mm 6 mps 704 mmHg 41%
    13:00 +35°C° 0 mm 6 mps 703 mmHg 39%
    14:00 +35°C° 0 mm 6 mps 703 mmHg 40%
    15:00 +35°C° 0 mm 6 mps 703 mmHg 40%
    16:00 +35°C° 0 mm 6 mps 703 mmHg 41%
    17:00 +34°C° 0 mm 6 mps 703 mmHg 45%
    18:00 +33°C° 0 mm 6 mps 703 mmHg 50%
    19:00 +32°C° 0 mm 6 mps 704 mmHg 54%
    20:00 +30°C° 0 mm 6 mps 704 mmHg 57%
    21:00 +29°C° 0 mm 5 mps 704 mmHg 60%
    22:00 +28°C° 0 mm 4 mps 705 mmHg 62%
    23:00 +28°C° 0 mm 4 mps 704 mmHg 64%

    23 February, Saturday

    Time Temperature Precipitation Wind Pressure Humidity
    00:00 +28°C° 0 mm 4 mps 703 mmHg 66%
    01:00 +27°C° 0 mm 3 mps 703 mmHg 69%
    02:00 +26°C° 0 mm 3 mps 702 mmHg 72%
    03:00 +26°C° 0 mm 3 mps 702 mmHg 75%
    04:00 +25°C° 0 mm 3 mps 702 mmHg 78%
    05:00 +25°C° 0 mm 3 mps 702 mmHg 78%
    06:00 +25°C° 0 mm 4 mps 702 mmHg 79%
    07:00 +25°C° 0 mm 4 mps 702 mmHg 79%
    08:00 +26°C° 0 mm 4 mps 701 mmHg 77%
    09:00 +26°C° 0 mm 4 mps 701 mmHg 74%
    10:00 +27°C° 0 mm 4 mps 701 mmHg 71%
    11:00 +28°C° 0 mm 5 mps 700 mmHg 64%
    12:00 +30°C° 0 mm 5 mps 700 mmHg 56%
    13:00 +33°C° 0 mm 5 mps 699 mmHg 49%
    14:00 +33°C° 0 mm 5 mps 699 mmHg 46%
    15:00 +34°C° 0 mm 5 mps 699 mmHg 43%
    16:00 +34°C° 0 mm 6 mps 699 mmHg 39%
    17:00 +34°C° 0 mm 5 mps 699 mmHg 42%
    18:00 +33°C° 0 mm 5 mps 700 mmHg 44%
    19:00 +32°C° 0 mm 4 mps 700 mmHg 47%
    20:00 +30°C° 0 mm 4 mps 701 mmHg 49%
    21:00 +30°C° 0 mm 4 mps 701 mmHg 51%
    22:00 +29°C° 0 mm 4 mps 701 mmHg 53%
    23:00 +28°C° 0 mm 3 mps 701 mmHg 57%

    24 February, Sunday

    Time Temperature Precipitation Wind Pressure Humidity
    00:00 +28°C° 0 mm 3 mps 700 mmHg 60%
    01:00 +27°C° 0 mm 3 mps 700 mmHg 63%
    02:00 +27°C° 0 mm 3 mps 700 mmHg 66%
    03:00 +26°C° 0 mm 3 mps 700 mmHg 69%
    04:00 +25°C° 0 mm 3 mps 700 mmHg 72%
    05:00 +26°C° 0 mm 4 mps 700 mmHg 69%
    06:00 +26°C° 0 mm 5 mps 701 mmHg 67%
    07:00 +27°C° 0 mm 6 mps 701 mmHg 64%
    08:00 +27°C° 0 mm 6 mps 701 mmHg 60%
    09:00 +28°C° 0 mm 7 mps 701 mmHg 57%
    10:00 +29°C° 0 mm 8 mps 701 mmHg 53%
    11:00 +29°C° 0 mm 8 mps 701 mmHg 47%
    12:00 +31°C° 0 mm 8 mps 700 mmHg 41%
    13:00 +32°C° 0 mm 8 mps 700 mmHg 34%
    14:00 +32°C° 0 mm 8 mps 700 mmHg 32%
    15:00 +32°C° 0 mm 8 mps 700 mmHg 29%
    16:00 +32°C° 0 mm 8 mps 700 mmHg 27%
    17:00 +31°C° 0 mm 8 mps 702 mmHg 28%
    18:00 +29°C° 0 mm 8 mps 703 mmHg 30%
    19:00 +28°C° 0 mm 8 mps 704 mmHg 31%
    20:00 +27°C° 0 mm 8 mps 705 mmHg 29%
    21:00 +26°C° 0 mm 8 mps 705 mmHg 27%
    22:00 +23°C° 0 mm 8 mps 706 mmHg 25%
    23:00 +22°C° 0 mm 7 mps 706 mmHg 25%
    Show more